Zurück zum Katalog

COSMOS 2233

AktivNavigationPO
NORAD 22487·PAYLOAD·🇷🇺 Russia

Gestartet Feb 9, 1993 von Plesetsk Cosmodrome

Loading…

Nächste Überflüge (nächste 24 Stunden)

TLE

AktuellSource: Space-Track

Epoche: Sep 14, 2026, 22:27 UTC

1 22487U 93008A   26257.93548792  .00000058  00000-0  44337-4 0  9990
2 22487  82.9424 115.9993 0037002 223.5256 200.1159 13.76046478682367

Verfolge COSMOS 2233 in Echtzeit mit AllMySat

Download on the App Store